, TX

(GMT )
Ingleside

Weather History for KTFP - February, 2014

Change the Weather History Date:

Sunday, February 2, 2014

  Actual Average Record
Temperature  
Mean Temperature 59 °F -  
Max Temperature 74 °F - - ()
Min Temperature 44 °F - - ()
Degree Days  
Heating Degree Days 6    
Growing Degree Days 9 (Base 50)    
Moisture  
Dew Point 54 °F    
Average Humidity 87    
Maximum Humidity 99    
Minimum Humidity 71    
Precipitation  
Precipitation 0.00 in - - ()
Sea Level Pressure  
Sea Level Pressure 29.94 in    
Wind  
Wind Speed 11 mph (NE)    
Max Wind Speed 26 mph    
Max Gust Speed 36 mph    
Visibility 8 miles    
Events Rain    
Averages and records for this station are not official NWS values.
T = Trace of Precipitation, MM = Missing Value Source: NWS Daily Summary

Daily Weather History Graph

Daily Weather History Graph

Search for Another Location

Airport or City:

Trip Planner

Search our weather history database for the weather conditions in past years. The results will help you decide how hot, cold, wet, or windy it might be!

Date:

Astronomy

Feb. 02, 2014 Rise Set
Actual Time 7:15 AM CST 6:10 PM CST
Civil Twilight 6:50 AM CST 6:34 PM CST
Nautical Twilight 6:22 AM CST 7:02 PM CST
Astronomical Twilight 5:55 AM CST 7:30 PM CST
Moon 9:03 AM CST (2/2) 9:31 PM CST (2/2)
Length of Visible Light 11h 43m
Length of Day
10h 55m
Waxing Crescent, 11% of the Moon is Illuminated
Feb 2
Waxing Crescent
Feb 6
First Quarter
Feb 14
Full
Feb 22
Last Quarter
Mar 1
New

Hourly Weather History & Observations

Time (CST) Temp. Windchill Dew Point Humidity Pressure Visibility Wind Dir Wind Speed Gust Speed Precip Events Conditions
12:15 AM 68.0 °F - 67.1 °F 97% 29.83 in 5.0 mi SE 6.9 mph - N/A   Overcast
12:35 AM 68.0 °F - 67.1 °F 97% 29.82 in 5.0 mi SE 6.9 mph - N/A   Overcast
12:55 AM 68.0 °F - 67.1 °F 97% 29.81 in 5.0 mi ESE 8.1 mph - N/A   Overcast
1:15 AM 68.4 °F - 67.5 °F 97% 29.81 in 5.0 mi ESE 8.1 mph - N/A   Overcast
1:35 AM 67.6 °F - 66.7 °F 97% 29.81 in 5.0 mi SE 9.2 mph 16.1 mph N/A   Overcast
1:55 AM 67.6 °F - 66.9 °F 98% 29.81 in 7.0 mi SE 10.4 mph - N/A   Overcast
2:15 AM 68.5 °F - 67.8 °F 98% 29.80 in 7.0 mi SE 10.4 mph 17.3 mph N/A   Overcast
2:35 AM 68.9 °F - 68.0 °F 97% 29.79 in 7.0 mi SE 9.2 mph - N/A   Overcast
2:55 AM 68.9 °F - 68.0 °F 97% 29.80 in 7.0 mi SE 6.9 mph - N/A   Overcast
3:15 AM 68.9 °F - 68.0 °F 97% 29.80 in 7.0 mi SE 8.1 mph - N/A   Overcast
3:35 AM 68.9 °F - 68.0 °F 97% 29.79 in 7.0 mi SE 8.1 mph - N/A   Overcast
3:55 AM 68.9 °F - 68.0 °F 97% 29.80 in 7.0 mi SE 6.9 mph - N/A   Overcast
4:15 AM 69.3 °F - 68.4 °F 97% 29.79 in 7.0 mi ESE 6.9 mph - N/A   Overcast
4:35 AM 69.1 °F - 68.4 °F 98% 29.79 in 7.0 mi ESE 8.1 mph - N/A   Overcast
4:55 AM 68.7 °F - 68.0 °F 98% 29.79 in 7.0 mi SE 6.9 mph - N/A   Overcast
5:15 AM 68.4 °F - 67.8 °F 98% 29.79 in 5.0 mi ESE 8.1 mph - N/A   Overcast
5:35 AM 68.2 °F - 67.6 °F 98% 29.79 in 4.0 mi ESE 8.1 mph - N/A   Overcast
5:55 AM 68.4 °F - 67.8 °F 98% 29.79 in 2.5 mi SE 9.2 mph - N/A   Overcast
6:15 AM 68.0 °F - 67.5 °F 98% 29.79 in 1.8 mi ESE 10.4 mph - N/A   Overcast
6:35 AM 68.0 °F - 67.5 °F 98% 29.81 in 3.0 mi East 4.6 mph - N/A   Overcast
6:55 AM 68.0 °F - 67.6 °F 99% 29.81 in 3.0 mi East 6.9 mph - N/A   Overcast
7:15 AM 68.0 °F - 67.5 °F 98% 29.81 in 4.0 mi ESE 8.1 mph - N/A   Overcast
7:35 AM 68.0 °F - 67.6 °F 99% 29.81 in 4.0 mi ESE 9.2 mph - N/A   Overcast
7:55 AM 68.2 °F - 67.8 °F 99% 29.81 in 5.0 mi ESE 6.9 mph - N/A   Overcast
8:15 AM 68.4 °F - 68.0 °F 99% 29.83 in 7.0 mi ESE 4.6 mph - N/A   Mostly Cloudy
8:35 AM 68.7 °F - 68.4 °F 99% 29.84 in 7.0 mi East 4.6 mph - N/A   Mostly Cloudy
8:55 AM 69.1 °F - 68.9 °F 99% 29.85 in 7.0 mi East 4.6 mph - N/A   Mostly Cloudy
9:15 AM 69.4 °F - 68.9 °F 98% 29.87 in 7.0 mi East 3.5 mph - N/A   Overcast
9:35 AM 70.0 °F - 68.9 °F 96% 29.88 in 7.0 mi ENE 4.6 mph - N/A   Overcast
9:55 AM 71.4 °F - 69.4 °F 93% 29.88 in 10.0 mi ESE 4.6 mph - N/A   Overcast
10:15 AM 73.4 °F - 70.0 °F 89% 29.89 in 10.0 mi SSE 3.5 mph - N/A   Overcast
10:35 AM 74.1 °F - 69.3 °F 85% 29.89 in 10.0 mi East 3.5 mph - N/A   Overcast
10:55 AM 74.1 °F - 69.1 °F 84% 29.89 in 10.0 mi Calm Calm - N/A   Overcast
11:15 AM 73.2 °F - 67.6 °F 83% 29.90 in 7.0 mi North 16.1 mph 19.6 mph N/A Rain Rain
11:35 AM 60.6 °F - 55.2 °F 82% 29.90 in 7.0 mi North 18.4 mph - N/A   Overcast
11:55 AM 55.4 °F - 53.2 °F 92% 29.91 in 7.0 mi North 21.9 mph 25.3 mph N/A   Overcast
12:15 PM 54.1 °F - 51.1 °F 89% 29.91 in 10.0 mi NNE 21.9 mph 28.8 mph N/A   Overcast
12:35 PM 53.2 °F - 49.1 °F 86% 29.92 in 10.0 mi North 21.9 mph 35.7 mph N/A   Overcast
12:55 PM 50.9 °F - 46.9 °F 86% 29.92 in 10.0 mi North 26.5 mph 32.2 mph N/A   Overcast
1:15 PM 48.6 °F - 45.3 °F 89% 29.94 in 10.0 mi North 21.9 mph 33.4 mph N/A   Overcast
1:35 PM 47.5 °F - 44.6 °F 90% 29.92 in 10.0 mi North 21.9 mph 27.6 mph N/A   Overcast
1:55 PM 47.8 °F - 44.4 °F 88% 29.92 in 10.0 mi NNE 21.9 mph 26.5 mph N/A   Overcast
2:15 PM 48.2 °F - 43.3 °F 83% 29.93 in 10.0 mi North 20.7 mph 28.8 mph N/A   Overcast
2:35 PM 47.1 °F - 42.6 °F 84% 29.94 in 10.0 mi North 21.9 mph 26.5 mph N/A   Overcast
2:55 PM 46.4 °F 38.3 °F 41.9 °F 84% 29.95 in 10.0 mi North 23.0 mph 32.2 mph N/A   Overcast
3:15 PM 46.6 °F - 41.4 °F 82% 29.96 in 10.0 mi North 25.3 mph 28.8 mph N/A   Overcast
3:35 PM 46.6 °F - 40.8 °F 80% 29.98 in 10.0 mi North 24.2 mph 31.1 mph N/A   Overcast
3:55 PM 46.4 °F 38.1 °F 40.1 °F 79% 29.99 in 10.0 mi North 24.2 mph 28.8 mph N/A   Overcast
4:15 PM 46.0 °F 38.5 °F 39.4 °F 78% 30.00 in 10.0 mi North 19.6 mph 24.2 mph N/A   Overcast
4:35 PM 45.5 °F 36.5 °F 39.4 °F 79% 30.02 in 7.0 mi North 26.5 mph 31.1 mph N/A   Overcast
4:55 PM 44.6 °F 36.1 °F 39.7 °F 83% 30.02 in 7.0 mi North 21.9 mph 27.6 mph N/A   Overcast
5:15 PM 44.6 °F 37.4 °F 39.9 °F 84% 30.03 in 7.0 mi North 16.1 mph 25.3 mph N/A   Overcast
5:35 PM 45.3 °F 37.3 °F 39.6 °F 80% 30.03 in 10.0 mi North 20.7 mph 26.5 mph N/A   Overcast
5:55 PM 45.9 °F 37.8 °F 39.0 °F 77% 30.03 in 10.0 mi North 21.9 mph 26.5 mph N/A   Overcast
6:15 PM 46.4 °F 38.5 °F 38.7 °F 74% 30.05 in 10.0 mi North 21.9 mph - N/A   Overcast
6:35 PM 46.4 °F 38.5 °F 37.9 °F 72% 30.06 in 10.0 mi North 21.9 mph 26.5 mph N/A   Overcast
6:55 PM 46.4 °F 39.8 °F 37.9 °F 72% 30.06 in 10.0 mi North 16.1 mph 26.5 mph N/A   Overcast
7:15 PM 46.6 °F - 38.1 °F 72% 30.07 in 10.0 mi North 18.4 mph 23.0 mph N/A   Overcast
7:35 PM 46.8 °F - 37.9 °F 71% 30.09 in 10.0 mi North 17.3 mph - N/A   Overcast
7:55 PM 46.8 °F - 38.1 °F 72% 30.10 in 10.0 mi North 21.9 mph 26.5 mph N/A   Overcast
8:15 PM 46.8 °F - 38.3 °F 72% 30.11 in 10.0 mi North 20.7 mph 26.5 mph N/A   Overcast
8:35 PM 46.6 °F - 38.1 °F 72% 30.12 in 10.0 mi North 19.6 mph - N/A   Overcast
8:55 PM 46.6 °F - 37.8 °F 71% 30.12 in 10.0 mi North 18.4 mph 24.2 mph N/A   Overcast
9:15 PM 46.0 °F 39.9 °F 37.6 °F 72% 30.14 in 10.0 mi North 13.8 mph 21.9 mph N/A   Scattered Clouds
9:35 PM 45.0 °F 39.3 °F 37.6 °F 75% 30.15 in 10.0 mi North 11.5 mph - N/A   Scattered Clouds
9:55 PM 44.8 °F 39.0 °F 37.6 °F 76% 30.15 in 10.0 mi North 11.5 mph - N/A   Mostly Cloudy
10:15 PM 45.1 °F 39.5 °F 37.8 °F 75% 30.16 in 10.0 mi North 11.5 mph - N/A   Overcast
10:35 PM 45.1 °F 39.9 °F 37.8 °F 75% 30.16 in 10.0 mi North 10.4 mph - N/A   Overcast
10:55 PM 45.5 °F 38.3 °F 37.9 °F 75% 30.16 in 10.0 mi North 17.3 mph - N/A   Overcast
11:15 PM 45.5 °F 38.3 °F 37.8 °F 74% 30.17 in 10.0 mi North 17.3 mph - N/A   Overcast
11:35 PM 45.1 °F 37.1 °F 37.6 °F 75% 30.18 in 10.0 mi North 20.7 mph - N/A   Overcast
11:55 PM 45.0 °F 38.2 °F 37.4 °F 75% 30.18 in 10.0 mi North 15.0 mph - N/A   Overcast